Hourly Data Report for September 13, 2017

All times are specified in Local Standard Time (LST). Add 1 hour to adjust for Daylight Saving Time where and when it is observed.

GRISE FIORD CLIMATE
NUNAVUT

76°25'22.040" N
82°54'08.020" W
44.50 m
2402351
71971
NGC

Download Data

Hourly Data (September 2017)
Hourly Data Report for September 13, 2017
Temp Definition
°C
Dew Point Temp Definition
°C
Rel Hum Definition
%
Wind Dir Definition
10's deg

Wind Spd Definition
km/h
Visibility Definition
km
Stn Press Definition
kPa
Hmdx Definition


Wind Chill Definition


Weather Definition


TIME
00:00 -4.8 -5.8 93 11 2   101.42   -6 LegendNANA
01:00 -5.0 -6.1 93 24 4   101.42   -7 LegendNANA
02:00 -4.9 -6.0 92 6 5   101.46   -7 LegendNANA
03:00 -5.3 -6.4 93 5 12   101.47   -10 LegendNANA
04:00 -5.1 -6.3 92 5 8   101.50   -9 LegendNANA
05:00 -5.0 -6.1 92 5 8   101.52   -9 LegendNANA
06:00 -4.9 -5.9 92 5 7   101.53   -8 LegendNANA
07:00 -4.6 -5.9 91 5 6   101.55   -7 LegendNANA
08:00
09:00 -4.0 -6.7 81 23 4   101.54   -6 LegendNANA
10:00 -3.7 -6.7 80 21 2   101.51   -5 LegendNANA
11:00 -3.8 -6.5 81 21 4   101.51   -5 LegendNANA
12:00 -3.7 -6.6 80 21 2   101.49   -5 LegendNANA
13:00 -3.6 -6.5 80 21 3   101.49   -5 LegendNANA
14:00 -3.7 -6.6 80 20 4   101.50   -5 LegendNANA
15:00 -3.5 -6.9 77 20 5   101.50   -6 LegendNANA
16:00 -3.5 -6.6 79 17 3   101.52   -5 LegendNANA
17:00 -3.6 -6.8 79 18 3   101.52   -5 LegendNANA
18:00 -3.7 -6.7 80 17 3   101.51   -5 LegendNANA
19:00 -3.7 -6.5 81 14 2   101.51   -5 LegendNANA
20:00 -3.9 -6.4 83 2 6   101.52   -7 LegendNANA
21:00 -3.6 -6.2 82 31 6   101.50   -6 LegendNANA
22:00 -3.5 -5.9 83 31 6   101.50   -6 LegendNANA
23:00 -3.7 -5.2 90 29 3   101.52   -5 LegendNANA

Notes on Data Quality.

Legend

  • E = Estimated
  • M = Missing
  • NA = Not Available
  • ‡ = Partner data that is not subject to review by the National Climate Archives
Date modified: